Location: Zagreb
(45.8000°N, 16.0000°E)
Time: 20:56:07
(UTC+01:00)

YUBILEINY - Pass Details

Date: 06 November 2020
Orbit: 1478 x 1509 km, 82.5° (Epoch: 01 December)

Event Time Altitude Azimuth Distance (km) Brightness Sun altitude
Rises 18:06:13 0° 357° (N) 4,611 ? -16.1°
Reaches altitude 10° 18:11:40 10° 25° (NNE) 3,626 ? -17.1°
Enters shadow 18:14:25 13° 44° (NE) 3,425 ? -17.6°
